Stations météo

Publicité
Rodez, France (7552): Température de l'air & dewpoint: 10.08.2017 17:00:00 - 16.08.2017 17:00:00 (CEST)Rodez, France (7552): Température de l'air 5cm: 10.08.2017 17:00:00 - 16.08.2017 17:00:00 (CEST)Rodez, France (7552): Vitesse du vent & gusts: 10.08.2017 17:00:00 - 16.08.2017 17:00:00 (CEST)Rodez, France (7552): Direction du vent: 10.08.2017 17:00:00 - 16.08.2017 17:00:00 (CEST)Rodez, France (7552): reduced air pressure: 10.08.2017 17:00:00 - 16.08.2017 17:00:00 (CEST)Rodez, France (7552): visibility: 10.08.2017 17:00:00 - 16.08.2017 17:00:00 (CEST)Rodez, France (7552): Ensoleillement: 10.08.2017 17:00:00 - 16.08.2017 17:00:00 (CEST)Rodez, France (7552): Quantités de précipitations: 10.08.2017 17:00:00 - 16.08.2017 17:00:00 (CEST)
Date & Time tt [°C] td [°C] tt 5cm [°C] ff [km/h] ff [knt] fx [km/h] fx [knt] dd ppp [hPa] vv [km] sd [min] rr [mm]
16.08.2017 17:00:00 24,3 18,0 26,1 13 7 23 12 NNW 1018,8 45 27 0,0
16.08.2017 16:00:00 23,9 16,4 27,5 14 8 23 12 NNW 1019,0 40 43 0,0
16.08.2017 15:00:00 23,2 17,4 27,1 11 6 19 11 NW 1019,5 56 5 0,0
16.08.2017 14:00:00 21,9 17,3 24,4 8 5 13 7 NW 1019,9 51 1 0,0
16.08.2017 13:00:00 21,2 16,4 24,2 4 2 8 5 WNW 1020,4 45 0 0,0
16.08.2017 12:00:00 20,4 16,6 22,3 3 2 13 7 SSW 1020,6 43 0 0,0
16.08.2017 11:00:00 17,8 15,4 20,4 3 1 9 5 NNE 1021,1 32 0 0,0
16.08.2017 10:00:00 16,6 16,0 17,6 3 2 6 3 SE 1021,1 15 0 0,0
16.08.2017 09:00:00 15,5 15,2 15,8 3 1 6 3 ESE 1021,4 1,6 8 0,0
16.08.2017 08:00:00 14,8 14,5 13,7 4 2 5 3 - 1021,3 0,5 28 0,0
16.08.2017 07:00:00 13,8 13,3 11,9 0 0 4 2 N 1021,5 0,2 0 0,0
16.08.2017 06:00:00 13,8 13,3 12,0 0 0 6 4 N 1020,7 0,3 0 0,0
16.08.2017 05:00:00 14,9 14,4 13,3 5 3 7 4 SSE 1020,3 0,4 0 0,0
16.08.2017 04:00:00 15,2 14,7 12,4 2 1 7 4 SE 1020,7 0,1 0 0,2
16.08.2017 03:00:00 15,4 14,6 12,8 0 0 7 4 N 1021,1 0,3 0 0,0
16.08.2017 02:00:00 17,2 16,6 12,9 6 3 16 9 NNE 1021,0 11 0 0,0
16.08.2017 01:00:00 16,0 15,4 12,7 5 3 8 4 S 1021,7 0,7 0 0,0
16.08.2017 00:00:00 17,5 16,9 13,8 3 1 5 3 S 1021,3 1,8 0 0,0
15.08.2017 23:00:00 18,0 17,0 16,3 3 2 8 4 SW 1020,4 12 0 0,0
15.08.2017 22:00:00 18,6 17,6 17,7 6 4 10 5 SSW 1020,3 17 0 0,0
15.08.2017 21:00:00 19,1 17,8 17,7 4 2 11 6 NNW 1019,8 19 6 0,0
15.08.2017 20:00:00 20,2 18,1 19,3 7 4 19 11 N 1019,0 33 17 0,2
15.08.2017 19:00:00 20,4 17,6 18,6 14 7 39 21 WNW 1018,9 50 0 0,6
15.08.2017 18:00:00 21,3 17,9 20,1 4 2 31 17 SSW 1018,2 16 0 0,2
15.08.2017 17:00:00 21,1 16,7 19,5 23 13 39 21 ESE 1016,9 51 0 0,0
15.08.2017 16:00:00 20,9 16,3 19,6 5 3 12 6 E 1020,0 20 0 0,2
15.08.2017 15:00:00 20,8 15,6 21,6 13 7 42 23 NNW 1020,0 50 17 0,0
15.08.2017 14:00:00 25,1 17,0 27,3 29 16 39 21 WNW 1018,4 58 54 0,0
15.08.2017 13:00:00 26,3 14,4 32,0 8 5 23 12 S 1016,9 58 52 0,0
15.08.2017 12:00:00 24,5 14,3 27,1 10 5 19 10 E 1016,7 41 57 0,0
15.08.2017 11:00:00 21,2 14,1 20,4 10 6 31 17 ESE 1017,6 60 14 0,0
15.08.2017 10:00:00 19,2 14,2 19,3 18 10 25 13 SE 1017,5 52 0 0,0
15.08.2017 09:00:00 18,3 13,4 16,9 17 9 26 14 E 1018,2 59 0 0,0
15.08.2017 08:00:00 17,3 12,8 - 15 8 24 13 ESE 1018,8 50 - -
15.08.2017 07:00:00 17,3 11,8 14,3 12 6 16 9 SE 1019,5 60 0 0,0
15.08.2017 06:00:00 15,6 11,4 13,7 6 3 15 8 S 1019,4 60 0 0,0
15.08.2017 05:00:00 16,0 11,2 14,7 16 9 20 11 SE 1019,2 60 0 0,0
15.08.2017 04:00:00 17,6 11,2 15,4 8 4 22 12 NNE 1019,3 60 0 0,0
15.08.2017 03:00:00 19,3 11,1 18,0 16 9 51 28 WNW 1019,1 60 0 0,0
15.08.2017 02:00:00 20,0 11,0 18,9 19 10 34 18 ESE 1017,2 60 0 0,0
15.08.2017 01:00:00 20,3 10,4 18,9 21 11 35 19 ESE 1017,0 60 0 0,0
15.08.2017 00:00:00 21,1 10,6 19,7 25 13 35 19 SE 1016,5 60 0 0,0
14.08.2017 23:00:00 21,3 11,6 20,1 24 13 34 19 SE 1016,7 60 0 0,0
14.08.2017 22:00:00 22,2 11,9 20,9 23 12 38 21 SE 1016,5 60 0 0,0
14.08.2017 21:00:00 23,5 13,1 22,2 20 11 39 21 SE 1015,5 60 25 0,0
14.08.2017 20:00:00 25,3 13,5 24,7 19 10 35 19 SE 1014,4 45 60 0,0
14.08.2017 19:00:00 27,1 13,4 30,1 19 10 36 19 SE 1014,1 60 60 0,0
14.08.2017 18:00:00 28,3 13,0 32,4 24 13 34 18 SSE 1013,9 60 60 0,0
14.08.2017 17:00:00 29,2 13,0 34,5 19 11 32 18 SSE 1013,7 57 60 0,0
14.08.2017 16:00:00 29,5 12,9 35,4 21 12 34 19 SSE 1013,6 60 60 0,0
14.08.2017 15:00:00 29,5 12,4 35,6 23 13 34 18 SE 1014,1 60 60 0,0
14.08.2017 14:00:00 28,7 12,2 35,1 21 11 30 16 SE 1014,5 20 60 0,0
14.08.2017 13:00:00 27,7 13,6 33,5 17 9 29 16 SE 1015,0 60 60 0,0
14.08.2017 12:00:00 26,4 12,5 30,9 18 10 29 16 SE 1015,7 60 60 0,0
14.08.2017 11:00:00 24,9 12,5 28,0 19 10 29 16 SE 1016,2 60 60 0,0
14.08.2017 10:00:00 22,6 13,6 23,5 16 8 24 13 SE 1016,6 60 60 0,0
14.08.2017 09:00:00 19,6 13,8 16,4 13 7 18 10 SE 1017,3 51 60 0,0
14.08.2017 08:00:00 16,7 13,0 - 9 5 13 7 SE 1018,0 50 - -
14.08.2017 07:00:00 14,3 12,3 10,3 11 6 13 7 SE 1018,2 60 0 0,0
14.08.2017 06:00:00 13,6 11,8 10,5 6 3 8 5 E 1018,4 20 0 0,0
14.08.2017 05:00:00 14,9 13,3 - 5 3 11 6 E 1018,3 40 - -
14.08.2017 04:00:00 14,8 13,0 9,7 7 4 11 6 SSE 1018,5 60 0 0,0
14.08.2017 03:00:00 14,7 13,1 10,1 5 3 8 5 SSE 1018,6 59 0 0,0
14.08.2017 02:00:00 15,5 14,0 10,6 3 2 4 2 ESE 1018,7 55 0 0,0
14.08.2017 01:00:00 15,8 14,0 11,8 4 2 8 4 SSE 1018,8 60 0 0,0
14.08.2017 00:00:00 16,2 14,0 11,7 4 2 5 3 S 1018,9 60 0 0,0
13.08.2017 23:00:00 17,0 13,5 12,6 2 1 6 3 W 1018,9 60 0 0,0
13.08.2017 22:00:00 18,1 14,0 15,0 7 4 14 8 WNW 1018,6 60 0 0,0
13.08.2017 21:00:00 19,6 14,6 16,6 8 4 14 8 WNW 1017,8 60 17 0,0
13.08.2017 20:00:00 23,1 14,9 22,8 9 5 20 11 NNW 1016,9 57 44 0,0
13.08.2017 19:00:00 22,8 15,4 24,4 12 7 22 12 NNW 1017,2 60 27 0,0
13.08.2017 18:00:00 23,8 15,3 26,9 10 6 21 11 NW 1017,3 60 53 0,0
13.08.2017 17:00:00 24,0 15,0 28,8 13 7 23 12 N 1017,6 60 58 0,0
13.08.2017 16:00:00 23,1 15,2 28,8 9 5 22 12 NNW 1018,1 60 56 0,0
13.08.2017 15:00:00 22,6 14,4 29,0 11 6 22 12 NNW 1018,5 17 58 0,0
13.08.2017 14:00:00 22,1 13,7 29,8 9 5 21 11 WNW 1019,1 59 60 0,0
13.08.2017 13:00:00 21,3 13,5 - 11 6 21 11 NW 1019,6 45 - 0,0
13.08.2017 12:00:00 20,0 13,0 27,7 9 5 17 9 NNW 1020,2 57 60 0,0
13.08.2017 11:00:00 18,5 12,9 24,8 6 3 11 6 NW 1020,6 59 60 0,0
13.08.2017 10:00:00 16,6 12,5 21,3 3 2 10 6 N 1020,9 52 60 0,0
13.08.2017 09:00:00 14,7 12,7 14,2 5 3 10 6 NW 1021,3 50 60 0,0
13.08.2017 08:00:00 12,1 11,8 8,7 0 0 3 2 N 1021,5 10 17 0,0
13.08.2017 07:00:00 11,4 10,8 8,9 0 0 4 2 N 1021,6 13 0 0,0
13.08.2017 06:00:00 11,8 11,0 9,3 3 2 5 3 SE 1021,6 12 0 0,0
13.08.2017 05:00:00 11,7 10,9 8,7 0 0 2 1 N 1021,9 16 0 0,0
13.08.2017 04:00:00 12,5 11,4 9,9 0 0 4 2 N 1022,1 20 0 0,0
13.08.2017 03:00:00 12,3 11,2 9,9 3 2 4 2 S 1022,4 28 0 0,0
13.08.2017 02:00:00 12,1 10,8 9,7 0 0 5 3 N 1022,8 19 0 0,0
13.08.2017 01:00:00 12,4 10,8 - 4 2 8 4 S 1023,3 45 - 0,0
13.08.2017 00:00:00 13,2 11,9 10,4 6 3 8 5 NW 1023,4 46 0 0,0
12.08.2017 23:00:00 13,4 11,5 10,9 7 4 13 7 WNW 1023,5 56 0 0,0
12.08.2017 22:00:00 13,9 11,8 11,6 7 4 17 9 NW 1023,3 59 0 0,0
12.08.2017 21:00:00 15,2 11,8 14,4 15 8 29 15 NW 1022,6 60 19 0,0
12.08.2017 20:00:00 17,7 11,9 17,8 20 11 29 16 NW 1021,7 60 60 0,0
12.08.2017 19:00:00 19,0 11,8 22,9 17 9 29 15 NW 1021,4 60 60 0,0
12.08.2017 18:00:00 19,6 10,0 24,8 16 8 27 14 NW 1021,5 60 60 0,0
12.08.2017 17:00:00 19,4 8,1 25,3 18 10 28 15 NW 1021,7 60 60 0,0
12.08.2017 16:00:00 19,6 9,2 25,2 13 7 27 15 WNW 1022,2 60 60 0,0
12.08.2017 15:00:00 18,1 6,9 - 16 9 31 17 NNW 1022,8 60 - 0,0
12.08.2017 14:00:00 17,2 8,6 23,2 16 9 27 15 WNW 1023,3 60 60 0,0
12.08.2017 13:00:00 16,6 7,8 23,4 14 8 23 12 WNW 1023,9 60 60 0,0
12.08.2017 12:00:00 15,0 9,4 19,3 14 8 29 16 NNW 1024,2 60 57 0,0
12.08.2017 11:00:00 15,3 10,9 16,6 11 6 21 12 NW 1024,0 57 44 0,0
12.08.2017 10:00:00 14,4 10,8 18,5 4 2 10 6 NW 1023,9 41 60 0,0
12.08.2017 09:00:00 12,0 11,1 10,9 4 2 5 3 SW 1024,1 37 60 0,0
12.08.2017 08:00:00 8,8 8,8 2,8 0 0 4 2 N 1024,7 12 40 0,0
12.08.2017 07:00:00 6,7 6,7 1,9 2 1 7 4 S 1025,0 4,6 0 0,0
12.08.2017 06:00:00 5,8 5,8 2,5 3 2 4 2 SW 1024,9 12 0 0,0
12.08.2017 05:00:00 6,9 6,9 2,8 0 0 4 2 N 1025,0 9 0 0,0
12.08.2017 04:00:00 7,2 7,1 - 4 2 5 3 WSW 1025,1 15 - 0,0
12.08.2017 03:00:00 7,6 7,3 3,4 4 2 5 3 S 1025,1 10 0 0,0
12.08.2017 02:00:00 8,8 8,7 4,4 3 2 5 3 SE 1025,2 13 0 0,0
12.08.2017 01:00:00 8,2 7,6 - 5 3 8 4 SW 1025,5 14 - 0,0
12.08.2017 00:00:00 10,6 9,2 6,1 0 0 8 4 N 1024,9 20 0 0,0
11.08.2017 23:00:00 10,7 9,3 8,1 6 4 16 8 WNW 1024,8 51 0 0,0
11.08.2017 22:00:00 12,1 10,2 11,1 11 6 16 9 NW 1024,2 60 0 0,0
11.08.2017 21:00:00 13,1 10,8 12,8 13 7 28 15 NW 1023,7 60 0 0,0
11.08.2017 20:00:00 13,4 10,4 13,3 23 13 32 17 NW 1023,4 60 7 0,0
11.08.2017 19:00:00 13,6 10,6 13,6 22 12 35 19 NW 1022,9 51 26 0,0
11.08.2017 18:00:00 13,4 10,7 - 21 11 34 18 NW 1023,1 55 - 0,0
11.08.2017 17:00:00 12,8 11,5 12,2 19 10 31 17 WNW 1023,6 49 0 1,0
11.08.2017 16:00:00 12,2 10,9 12,4 20 11 30 16 NW 1023,6 7 0 1,0
11.08.2017 15:00:00 12,5 10,6 12,5 23 12 38 20 NW 1023,3 15 0 0,0
11.08.2017 14:00:00 13,3 11,2 11,7 24 13 35 19 NW 1022,7 38 0 0,2
11.08.2017 13:00:00 13,3 10,3 13,3 20 11 36 20 WNW 1022,6 57 0 0,0
11.08.2017 12:00:00 12,6 10,5 12,2 22 12 36 19 WNW 1022,9 55 0 0,0
11.08.2017 11:00:00 11,7 10,4 11,3 20 11 28 15 WNW 1022,7 36 0 0,0
11.08.2017 10:00:00 11,2 9,9 10,9 16 9 24 13 WNW 1022,6 36 0 0,0
11.08.2017 09:00:00 10,7 9,6 10,7 16 9 24 13 W 1022,8 37 0 0,0
11.08.2017 08:00:00 10,6 9,7 - 15 8 26 14 WNW 1022,6 40 - -
11.08.2017 07:00:00 10,0 9,4 - 21 11 26 14 WNW 1022,6 50 - 0,0
11.08.2017 06:00:00 10,0 9,4 9,4 16 8 28 15 NW 1022,1 43 0 0,0
11.08.2017 05:00:00 10,7 9,9 - 16 9 35 19 WNW 1021,8 35 - -
11.08.2017 04:00:00 11,0 10,1 10,5 20 11 36 19 WNW 1021,7 37 0 0,0
11.08.2017 03:00:00 11,4 10,6 - 24 13 39 21 WNW 1021,8 35 - 0,0
11.08.2017 02:00:00 11,7 10,8 11,4 27 15 38 20 WNW 1022,3 37 0 0,0
11.08.2017 01:00:00 11,7 10,8 - 21 11 35 19 W 1022,7 40 - 0,0
11.08.2017 00:00:00 11,9 10,8 11,5 24 13 36 19 WNW 1022,3 54 0 0,4
10.08.2017 23:00:00 11,9 11,3 11,1 22 12 37 20 W 1022,4 17 0 2,0
10.08.2017 22:00:00 12,4 10,8 11,1 14 7 25 13 W 1022,1 60 0 0,0
10.08.2017 21:00:00 11,5 10,7 11,1 12 7 37 20 W 1021,9 60 3 3,6
10.08.2017 20:00:00 13,9 11,9 13,2 19 10 27 15 W 1020,8 57 2 0,0
10.08.2017 19:00:00 14,2 12,2 13,0 13 7 30 16 W 1020,3 60 4 0,0
10.08.2017 18:00:00 14,2 11,5 13,3 21 11 30 16 W 1020,4 17 2 0,2
10.08.2017 17:00:00 15,5 10,0 15,8 26 14 38 21 W 1020,0 60 27 0,0

tt = Température de l'air
td = dewpoint
tt 5cm = Température de l'air 5cm
ff = Vitesse du vent
fx = gusts
dd = Direction du vent
ppp = reduced air pressure
vv = visibility
sd = Ensoleillement
rr = Quantités de précipitations

stations d'obs. à proximité